Wind_Gust
0 0 0 0 0 0 0 0 0 0 0 0 0 0 0 0 0 0 0 0 0 0 0 0 0 0 0 0 0 0 0 0 0 0 0 0 0 0 0 0 0 0 0 0 0 0 0 0 0 0 0 0 0 0 0 0 0 0 0 0 0 0 0 0 0 0 0 0 0 0 0 0 0 0 0 0 0 0 0 0 0 0 0 0 0 0
0 0 0 0 0 0 0 0 0 0 0 0 0 0 0 0 0 0 0 0 0 0 0 0 0 0 0 0 0 0 0 0 0 0 0 0 0 0 0 0 0 0 0 0 0 0 0 0 0 0 0 0 0 0 0 0 0 0 0 0 0 0 0 0 0 0 0 0 0 0 0 0 0 0 0 0 0 0 0 0 0 0 0 0 0 0
0 0 0 0 0 0 0 0 0 0 0 0 0 0 0 0 0 0 0 0 0 0 0 0 0 0 0 0 0 0 0 0 0 0 0 0 0 0 0 0 0 0 0 0 0 0 0 0 0 0 0 0 0 0 0 0 0 0 0 0 0 0 0 0 0 0 0 0 0 0 0 0 0 0 0 0 0 0 0 0 0 0 0 0 0 0
0 0 0 0 0 0 0 0 0 0 0 0 0 0 0 0 0 0 0 0 0 0 0 0 0 0 0 0 0 0 0 0 0 0 0 0 0 0 0 0 0 0 0 0 0 0 0 0 0 0 0 0 0 0 0 0 0 0 0 0 0 0 0 0 0 0 0 0 0 0 0 0 0 0 0 0 0 0 0 0 0 0 0 0 0 0
0 0 0 0 0 0 0 0 0 0 0 0 0 0 0 0 0 0 0 0 0 0 0 0 0 0 0 0 0 0 0 0 0 0 0 0 0 0 0 0 0 0 0 0 0 0 0 0 0 0 0 0 0 0 0 0 0 0 0 0 0 0 0 0 0 0 0 0 0 0 0 0 0 0 0 0 0 0 0 0 0 0 0 0 0 0
0 0 0 0 0 0 0 0 0 0 0 0 0 0 0 0 0 0 0 0 0 0 0 0 0 0 0 0 0 0 0 0 0 0 0 0 0 0 0 0 0 0 0 0 0 0 0 0 0 0 0 0 0 0 0 0 0 0 0 0 0 0 0 0 0 0 0 0 0 0 0 0 0 0 0 0 0 0 0 0 0 0 0 0 0 0
0 0 0 0 0 0 0 0 0 0 0 0 0 0 0 0 0 0 0 0 0 0 0 0 0 0 0 0 0 0 0 0 0 0 0 0 0 0 0 0 0 0 0 0 0 0 0 0 0 0 0 0 0 0 0 0 0 0 0 0 0 0 0 0 0 0 0 0 0 0 0 0 0 0 0 0 0 0 0 0 0 0 0 0 0 0
0 0 0 0 0 0 0 0 0 0 0 0 0 0 0 0 0 0 0 0 0 0 0 0 0 0 0 0 0 0 0 0 0 0 0 0 0 0 0 0 0 0 0 0 0 0 0 0 0 0 0 0 0 0 0 0 0 0 0 0 0 0 0 0 0 0 0 0 0 0 0 0 0 0 0 0 0 0 0 0 0 0 0 0 0 0
0 0 0 0 0 0 0 0 0 0 0 0 0 0 0 0 0 0 0 0 0 0 0 0 0 0 0 0 0 0 0 0 0 0 0 0 0 0 0 0 0 0 0 0 0 0 0 0 0 0 0 0 0 0 0 0 0 0 0 0 0 0 0 0 0 0 0 0 0 0 0 0 0 0 0 0 0 0 0 0 0 0 0 0 0 0
0 0 0 0 0 0 0 0 0 0 0 0 0 0 0 0 0 0 0 0 0 0 0 0 0 0 0 0 0 0 0 0 0 0 0 0 0 0 0 0 0 0 0 0 0 0 0 0 0 0 0 0 0 0 0 0 0 0 0 0 0 0 0 0 0 0 0 0 0 0 0 0 0 0 0 0 0 0 0 0 0 0 0 0 0 0
0 0 0 0 0 0 0 0 0 0 0 0 0 0 0 0 0 0 0 0 0 0 0 0 0 0 0 0 0 0 0 0 0 0 0 0 0 0 0 0 0 0 0 0 0 0 0 0 0 0 0 0 0 0 0 0 0 0 0 0 0 0 0 0 0 0 0 0 0 0 0 0 0 0 0 0 0 0 0 0 0 0 0 0 0 0
0 0 0 0 0 0 0 0 0 0 0 0 0 0 0 0 0 0 0 0 0 0 0 0 0 0 0 0 0 0 0 0 0 0 0 0 0 0 0 0 0 0 0 0 0 0 0 0 0 0 0 0 0 0 0 0 0 0 0 0 0 0 0 0 0 0 0 0 0 0 0 0 0 0 0 0 0 0 0 0 0 0 0 0 0 0
0 0 0 0 0 0 0 0 0 0 0 0 0 0 0 0 0 0 0 0 0 0 0 0 0 0 0 0 0 0 0 0 0 0 0 0 0 0 0 0 0 0 0 0 0 0 0 0 0 0 0 0 0 0 0 0 0 0 0 0 0 0 0 0 0 0 0 0 0 0 0 0 0 0 0 0 0 0 0 0 0 0 0 0 0 0
0 0 0 0 0 0 0 0 0 0 0 0 0 0 0 0 0 0 0 0 0 0 0 0 0 0 0 0 0 0 0 0 0 0 0 0 0 0 0 0 0 0 0 0 0 0 0 0 0 0 0 0 0 0 0 0 0 0 0 0 0 0 0 0 0 0 0 0 0 0 0 0 0 0 0 0 0 0 0 0 0 0 0 0 0 0
0 0 0 0 0 0 0 0 0 0 0 0 0 0 0 0 0 0 0 0 0 0 0 0 0 0 0 0 0 0 0 0 0 0 0 0 0 0 0 0 0 0 0 0 0 0 0 0 0 0 0 0 0 0 0 0 0 0 0 0 0 0 0 0 0 0 0 0 0 0 0 0 0 0 0 0 0 0 0 0 0 0 0 0 0 0
0 0 0 0 0 0 0 0 0 0 0 0 0 0 0 0 0 0 0 0 0 0 0 0 0 0 0 0 0 0 0 0 0 0 0 0 0 0 0 0 0 0 0 0 0 0 0 0 0 0 0 0 0 0 0 0 0 0 0 0 0 0 0 0 0 0 0 0 0 0 0 0 0 0 0 0 0 0 0 0 0 0 0 0 0 0
0 0 0 0 0 0 0 0 0 0 0 0 0 0 0 0 0 0 0 0 0 0 0 0 0 0 0 0 0 0 0 0 0 0 0 0 0 0 0 0 0 0 0 0 0 0 0 0 0 0 0 0 0 0 0 0 0 0 0 0 0 0 0 0 0 0 0 0 0 0 0 0 0 0 0 0 0 0 0 0 0 0 0 0 0 0
0 0 0 0 0 0 0 0 0 0 0 0 0 0 0 0 0 0 0 0 0 0 0 0 0 0 0 0 0 0 0 0 0 0 0 0 0 0 0 0 0 0 0 0 0 0 0 0 0 0 0 0 0 0 0 0 0 0 0 0 0 0 0 0 0 0 0 0 0 0 0 0 0 0 0 0 0 0 0 0 0 0 0 0 0 0
0 0 0 0 0 0 0 0 0 0 0 0 0 0 0 0 0 0 0 0 0 0 0 0 0 0 0 0 0 0 0 0 0 0 0 0 0 0 0 0 0 0 0 0 0 0 0 0 0 0 0 0 0 0 0 0 0 0 0 0 0 0 0 0 0 0 0 0 0 0 0 0 0 0 0 0 0 0 0 0 0 0 0 0 0 0
0 0 0 0 0 0 0 0 0 0 0 0 0 0 0 0 0 0 0 0 0 0 0 0 0 0 0 0 0 0 0 0 0 0 0 0 0 0 0 0 0 0 0 0 0 0 0 0 0 0 0 0 0 0 0 0 0 0 0 0 0 0 0 0 0 0 0 0 0 0 0 0 0 0 0 0 0 0 0 0 0 0 0 0 0 0
0 0 0 0 0 0 0 0 0 0 0 0 0 0 0 0 0 0 0 0 0 0 0 0 0 0 0 0 0 0 0 0 0 0 0 0 0 0 0 0 0 0 0 0 0 0 0 0 0 0 0 0 0 0 0 0 0 0 0 0 0 0 0 0 0 0 0 0 0 0 0 0 0 0 0 0 0 0 0 0 0 0 0 0 0 0
0 0 0 0 0 0 0 0 0 0 0 0 0 0 0 0 0 0 0 0 0 0 0 0 0 0 0 0 0 0 0 0 0 0 0 0 0 0 0 0 0 0 0 0 0 0 0 0 0 0 0 0 0 0 0 0 0 0 0 0 0 0 0 0 0 0 0 0 0 0 0 0 0 0 0 0 0 0 0 0 0 0 0 0 0 0
0 0 0 0 0 0 0 0 0 0 0 0 0 0 0 0 0 0 0 0 0 0 0 0 0 0 0 0 0 0 0 0 0 0 0 0 0 0 0 0 0 0 0 0 0 0 0 0 0 0 0 0 0 0 0 0 0 0 0 0 0 0 0 0 0 0 0 0 0 0 0 0 0 0 0 0 0 0 0 0 0 0 0 0 0 0
0 0 0 0 0 0 0 0 0 0 0 0 0 0 0 0 0 0 0 0 0 0 0 0 0 0 0 0 0 0 0 0 0 0 0 0 0 0 0 0 0 0 0 0 0 0 0 0 0 0 0 0 0 0 0 0 0 0 0 0 0 0 0 0 0 0 0 0 0 0 0 0 0 0 0 0 0 0 0 0 0 0 0 0 0 0
0 0 0 0 0 0 0 0 0 0 0 0 0 0 0 0 0 0 0 0 0 0 0 0 0 0 0 0 0 0 0 0 0 0 0 0 0 0 0 0 0 0 0 0 0 0 0 0 0 0 0 0 0 0 0 0 0 0 0 0 0 0 0 0 0 0 0 0 0 0 0 0 0 0 0 0 0 0 0 0 0 0 0 0 0 0
0 0 0 0 0 0 0 0 0 0 0 0 0 0 0 0 0 0 0 0 0 0 0 0 0 0 0 0 0 0 0 0 0 0 0 0 0 0 0 0 0 0 0 0 0 0 0 0 0 0 0 0 0 0 0 0 0 0 0 0 0 0 0 0 0 0 0 0 0 0 0 0 0 0 0 0 0 0 0 0 0 0 0 0 0 0
0 0 0 0 0 0 0 0 0 0 0 0 0 0 0 0 0 0 0 0 0 0 0 0 0 0 0 0 0 0 0 0 0 0 0 0 0 0 0 0 0 0 0 0 0 0 0 0 0 0 0 0 0 0 0 0 0 0 0 0 0 0 0 0 0 0 0 0 0 0 0 0 0 0 0 0 0 0 0 0 0 0 0 0 0 0
0 0 0 0 0 0 0 0 0 0 0 0 0 0 0 0 0 0 0 0 0 0 0 0 0 0 0 0 0 0 0 0 0 0 0 0 0 0 0 0 0 0 0 0 0 0 0 0 0 0 0 0 0 0 0 0 0 0 0 0 0 0 0 0 0 0 0 0 0 0 0 0 0 0 0 0 0 0 0 0 0 0 0 0 0 0
0 0 0 0 0 0 0 0 0 0 0 0 0 0 0 0 0 0 0 0 0 0 0 0 0 0 0 0 0 0 0 0 0 0 0 0 0 0 0 0 0 0 0 0 0 0 0 0 0 0 0 0 0 0 0 0 0 0 0 0 0 0 0 0 0 0 0 0 0 0 0 0 0 0 0 0 0 0 0 0 0 0 0 0 0 0
0 0 0 0 0 0 0 0 0 0 0 0 0 0 0 0 0 0 0 0 0 0 0 0 0 0 0 0 0 0 0 0 0 0 0 0 0 0 0 0 0 0 0 0 0 0 0 0 0 0 0 0 0 0 0 0 0 0 0 0 0 0 0 0 0 0 0 0 0 0 0 0 0 0 0 0 0 0 0 0 0 0 0 0 0 0
0 0 0 0 0 0 0 0 0 0 0 0 0 0 0 0 0 0 0 0 0 0 0 0 0 0 0 0 0 0 0 0 0 0 0 0 0 0 0 0 0 0 0 0 0 0 0 0 0 0 0 0 0 0 0 0 0 0 0 0 0 0 0 0 0 0 0 0 0 0 0 0 0 0 0 0 0 0 0 0 0 0 0 0 0 0
0 0 0 0 0 0 0 0 0 0 0 0 0 0 0 0 0 0 0 0 0 0 0 0 0 0 0 0 0 0 0 0 0 0 0 0 0 0 0 0 0 0 0 0 0 0 0 0 0 0 0 0 0 0 0 0 0 0 0 0 0 0 0 0 0 0 0 0 0 0 0 0 0 0 0 0 0 0 0 0 0 0 0 0 0 0
0 0 0 0 0 0 0 0 0 0 0 0 0 0 0 0 0 0 0 0 0 0 0 0 0 0 0 0 0 0 0 0 0 0 0 0 0 0 0 0 0 0 0 0 0 0 0 0 0 0 0 0 0 0 0 0 0 0 0 0 0 0 0 0 0 0 0 0 0 0 0 0 0 0 0 0 0 0 0 0 0 0 0 0 0 0
0 0 0 0 0 0 0 0 0 0 0 0 0 0 0 0 0 0 0 0 0 0 0 0 0 0 0 0 0 0 0 0 0 0 0 0 0 0 0 0 0 0 0 0 0 0 0 0 0 0 0 0 0 0 0 0 0 0 0 0 0 0 0 0 0 0 0 0 0 0 0 0 0 0 0 0 0 0 0 0 0 0 0 0 0 0
0 0 0 0 0 0 0 0 0 0 0 0 0 0 0 0 0 0 0 0 0 0 0 0 0 0 0 0 0 0 0 0 0 0 0 0 0 0 0 0 0 0 0 0 0 0 0 0 0 0 0 0 0 0 0 0 0 0 0 0 0 0 0 0 0 0 0 0 0 0 0 0 0 0 0 0 0 0 0 0 0 0 0 0 0 0
0 0 0 0 0 0 0 0 0 0 0 0 0 0 0 0 0 0 0 0 0 0 0 0 0 0 0 0 0 0 0 0 0 0 0 0 0 0 0 0 0 0 0 0 0 0 0 0 0 0 0 0 0 0 0 0 0 0 0 0 0 0 0 0 0 0 0 0 0 0 0 0 0 0 0 0 0 0 0 0 0 0 0 0 0 0
0 0 0 0 0 0 0 0 0 0 0 0 0 0 0 0 0 0 0 0 0 0 0 0 0 0 0 0 0 0 0 0 0 0 0 0 0 0 0 0 0 0 0 0 0 0 0 0 0 0 0 0 0 0 0 0 0 0 0 0 0 0 0 0 0 0 0 0 0 0 0 0 0 0 0 0 0 0 0 0 0 0 0 0 0 0
0 0 0 0 0 0 0 0 0 0 0 0 0 0 0 0 0 0 0 0 0 0 0 0 0 0 0 0 0 0 0 0 0 0 0 0 0 0 0 0 0 0 0 0 0 0 0 0 0 0 0 0 0 0 0 0 0 0 0 0 0 0 0 0 0 0 0 0 0 0 0 0 0 0 0 0 0 0 0 0 0 0 0 0 0 0
0 0 0 0 0 0 0 0 0 0 0 0 0 0 0 0 0 0 0 0 0 0 0 0 0 0 0 0 0 0 0 0 0 0 0 0 0 0 0 0 0 0 0 0 0 0 0 0 0 0 0 0 0 0 0 0 0 0 0 0 0 0 0 0 0 0 0 0 0 0 0 0 0 0 0 0 0 0 0 0 0 0 0 0 0 0
0 0 0 0 0 0 0 0 0 0 0 0 0 0 0 0 0 0 0 0 0 0 0 0 0 0 0 0 0 0 0 0 0 0 0 0 0 0 0 0 0 0 0 0 0 0 0 0 0 0 0 0 0 0 0 0 0 0 0 0 0 0 0 0 0 0 0 0 0 0 0 0 0 0 0 0 0 0 0 0 0 0 0 0 0 0
0 0 0 0 0 0 0 0 0 0 0 0 0 0 0 0 0 0 0 0 0 0 0 0 0 0 0 0 0 0 0 0 0 0 0 0 0 0 0 0 0 0 0 0 0 0 0 0 0 0 0 0 0 0 0 0 0 0 0 0 0 0 0 0 0 0 0 0 0 0 0 0 0 0 0 0 0 0 0 0 0 0 0 0 0 0
0 0 0 0 0 0 0 0 0 0 0 0 0 0 0 0 0 0 0 0 0 0 0 0 0 0 0 0 0 0 0 0 0 0 0 0 0 0 0 0 0 0 0 0 0 0 0 0 0 0 0 0 0 0 0 0 0 0 0 0 0 0 0 0 0 0 0 0 0 0 0 0 0 0 0 0 0 0 0 0 0 0 0 0 0 0
0 0 0 0 0 0 0 0 0 0 0 0 0 0 0 0 0 0 0 0 0 0 0 0 0 0 0 0 0 0 0 0 0 0 0 0 0 0 0 0 0 0 0 0 0 0 0 0 0 0 0 0 0 0 0 0 0 0 0 0 0 0 0 0 0 0 0 0 0 0 0 0 0 0 0 0 0 0 0 0 0 0 0 0 0 0
0 0 0 0 0 0 0 0 0 0 0 0 0 0 0 0 0 0 0 0 0 0 0 0 0 0 0 0 0 0 0 0 0 0 0 0 0 0 0 0 0 0 0 0 0 0 0 0 0 0 0 0 0 0 0 0 0 0 0 0 0 0 0 0 0 0 0 0 0 0 0 0 0 0 0 0 0 0 0 0 0 0 0 0 0 0
0 0 0 0 0 0 0 0 0 0 0 0 0 0 0 0 0 0 0 0 0 0 0 0 0 0 0 0 0 0 0 0 0 0 0 0 0 0 0 0 0 0 0 0 0 0 0 0 0 0 0 0 0 0 0 0 0 0 0 0 0 0 0 0 0 0 0 0 0 0 0 0 0 0 0 0 0 0 0 0 0 0 0 0 0 0
0 0 0 0 0 0 0 0 0 0 0 0 0 0 0 0 0 0 0 0 0 0 0 0 0 0 0 0 0 0 0 0 0 0 0 0 0 0 0 0 0 0 0 0 0 0 0 0 0 0 0 0 0 0 0 0 0 0 0 0 0 0 0 0 0 0 0 0 0 0 0 0 0 0 0 0 0 0 0 0 0 0 0 0 0 0
0 0 0 0 0 0 0 0 0 0 0 0 0 0 0 0 0 0 0 0 0 0 0 0 0 0 0 0 0 0 0 0 0 0 0 0 0 0 0 0 0 0 0 0 0 0 0 0 0 0 0 0 0 0 0 0 0 0 0 0 0 0 0 0 0 0 0 0 0 0 0 0 0 0 0 0 0 0 0 0 0 0 0 0 0 0
0 0 0 0 0 0 0 0 0 0 0 0 0 0 0 0 0 0 0 0 0 0 0 0 0 0 0 0 0 0 0 0 0 0 0 0 0 0 0 0 0 0 0 0 0 0 0 0 0 0 0 0 0 0 0 0 0 0 0 0 0 0 0 0 0 0 0 0 0 0 0 0 0 0 0 0 0 0 0 0 0 0 0 0 0 0
0 0 0 0 0 0 0 0 0 0 0 0 0 0 0 0 0 0 0 0 0 0 0 0 0 0 0 0 0 0 0 0 0 0 0 0 0 0 0 0 0 0 0 0 0 0 0 0 0 0 0 0 0 0 0 0 0 0 0 0 0 0 0 0 0 0 0 0 0 0 0 0 0 0 0 0 0 0 0 0 0 0 0 0 0 0
0 0 0 0 0 0 0 0 0 0 0 0 0 0 0 0 0 0 0 0 0 0 0 0 0 0 0 0 0 0 0 0 0 0 0 0 0 0 0 0 0 0 0 0 0 0 0 0 0 0 0 0 0 0 0 0 0 0 0 0 0 0 0 0 0 0 0 0 0 0 0 0 0 0 0 0 0 0 0 0 0 0 0 0 0 0
0 0 0 0 0 0 0 0 0 0 0 0 0 0 0 0 0 0 0 0 0 0 0 0 0 0 0 0 0 0 0 0 0 0 0 0 0 0 0 0 0 0 0 0 0 0 0 0 0 0 0 0 0 0 0 0 0 0 0 0 0 0 0 0 0 0 0 0 0 0 0 0 0 0 0 0 0 0 0 0 0 0 0 0 0 0
Wind_Speed
5 7 7 7 8 4 7 10 7 7 7 10 10 9 11 7 6 2 13 9 3 6 7 8 10 11 11 11 11 9 13 10 10 10 7 7 7 10 10 9 8 7 7 11 11 14 14 12 12 11 11 10 10 10 9 8 7 7 7 7 6 4 4 5 5 2 4 2 4 3 2 2 3 5 2 4 5 2 4 2 3 2 3 3 3 2
4 6 9 11 4 6 13 4 6 5 8 9 9 9 9 6 4 8 10 8 3 1 5 7 11 13 13 13 12 12 11 14 12 11 10 10 9 8 10 11 11 8 7 7 4 12 15 13 13 11 11 11 12 10 10 8 7 7 7 7 6 5 4 1 4 4 2 3 2 2 3 2 5 5 3 4 3 1 3 1 1 0 2 3 1 2
6 9 10 11 5 5 2 5 6 7 7 9 8 8 9 8 7 12 8 7 8 6 6 8 11 13 15 15 14 13 14 9 12 11 9 9 11 10 10 9 7 6 6 7 7 5 9 14 15 11 10 11 11 11 11 9 8 7 7 6 7 5 3 2 3 4 5 3 2 3 2 4 3 4 1 3 3 1 1 4 2 0 2 3 3 2
9 9 13 5 2 2 1 3 4 5 5 7 8 8 8 9 9 8 6 6 6 4 5 6 10 9 12 13 15 12 10 10 10 14 11 11 11 11 11 9 8 8 7 8 5 9 7 13 14 11 11 11 10 11 10 9 9 8 6 5 8 6 4 5 3 3 4 4 3 2 2 2 2 4 5 5 3 2 2 2 2 2 2 1 0 1
10 7 10 4 3 7 6 3 4 4 6 7 9 10 9 9 8 9 5 5 4 2 7 10 9 10 11 12 10 10 10 12 12 11 14 13 13 11 9 9 9 10 10 11 9 10 9 13 14 13 12 12 10 11 11 10 9 7 8 7 7 7 6 5 3 5 4 4 3 2 1 2 1 0 3 3 3 1 2 0 2 3 1 2 1 2
14 8 5 4 3 3 5 6 4 5 7 8 11 12 11 11 12 9 5 4 3 6 10 10 8 8 11 15 14 9 10 13 13 14 13 13 15 15 15 13 11 9 7 4 5 6 10 11 10 13 13 12 11 11 10 11 9 8 8 7 7 7 6 7 5 5 5 5 5 4 4 5 6 3 3 3 2 2 2 3 2 1 2 1 1 1
3 10 3 8 7 5 6 7 8 10 8 6 9 9 16 17 8 9 10 4 7 8 2 12 7 8 9 10 14 13 11 14 13 14 14 13 12 15 15 13 11 9 7 8 5 6 9 9 8 12 12 12 12 10 9 11 10 9 9 8 8 7 6 7 5 5 5 5 4 3 2 1 1 5 3 2 2 1 2 2 2 3 1 1 3 2
11 13 6 6 5 6 7 8 9 12 9 9 7 3 8 2 6 7 9 9 8 11 7 12 8 7 9 9 12 7 13 11 12 13 13 12 12 12 11 12 10 10 10 8 10 9 7 10 10 11 11 11 12 10 10 11 10 10 10 9 9 8 6 7 6 6 5 4 3 3 1 1 2 3 4 3 3 1 1 2 0 1 1 2 3 1
7 5 7 7 6 7 9 9 9 11 9 4 4 8 12 9 7 8 9 8 9 8 10 8 11 7 8 10 12 14 14 14 9 10 11 12 11 12 11 10 11 11 10 9 8 8 6 8 9 9 11 10 11 11 10 10 9 9 8 8 9 8 8 8 8 6 5 4 5 4 2 3 4 3 4 3 3 3 3 1 2 1 2 1 0 2
5 4 6 7 7 9 9 13 13 9 9 7 7 2 7 9 5 8 9 9 9 10 9 12 10 10 8 7 10 11 9 7 11 13 13 12 10 10 9 9 9 9 8 9 9 8 6 7 10 9 9 10 9 9 10 10 9 8 7 8 10 8 8 8 8 7 5 4 6 4 4 3 5 3 3 2 4 2 2 2 2 2 2 0 2 1
12 8 5 6 10 11 11 12 9 11 9 8 4 6 8 10 9 8 8 8 8 10 11 14 13 11 10 6 10 6 9 9 8 6 6 6 10 10 8 10 9 8 9 10 11 9 7 7 10 10 10 10 9 8 10 9 9 8 8 8 10 9 8 9 8 7 6 4 5 4 3 3 3 3 4 2 3 3 2 2 2 1 1 1 1 1
14 6 7 7 10 9 10 12 6 1 5 5 6 7 7 9 9 8 8 9 8 10 11 14 15 15 12 7 9 5 4 7 1 4 4 7 11 10 8 9 10 10 8 11 11 12 11 9 10 10 10 10 10 9 9 9 8 8 8 8 10 9 8 9 8 7 7 5 5 4 4 4 3 3 2 2 5 3 3 1 2 2 1 2 1 1
11 12 9 10 9 13 10 10 7 6 6 7 7 8 8 8 6 9 8 9 11 10 10 14 14 11 12 8 9 12 7 2 6 4 6 7 7 9 10 10 9 9 10 10 10 9 11 11 11 12 11 11 11 10 10 9 8 8 8 10 10 10 9 10 8 7 7 6 5 4 5 4 3 4 3 3 2 3 2 3 3 2 1 1 3 3
8 11 11 11 11 11 12 9 7 10 9 10 9 8 9 8 8 8 10 8 10 14 15 14 12 11 8 5 10 13 12 8 6 6 6 10 4 5 9 8 9 8 10 10 12 11 13 11 11 12 11 11 11 11 10 8 8 7 8 10 11 10 9 9 9 8 7 6 5 5 5 5 4 4 3 2 3 3 3 3 3 2 2 1 1 1
7 7 8 8 8 9 12 10 10 9 6 11 9 10 10 9 8 7 7 8 8 4 6 7 5 3 4 5 6 10 10 10 8 10 8 6 7 3 7 9 11 11 8 10 10 10 14 14 12 12 10 10 10 12 11 10 10 9 8 10 11 10 11 9 9 7 7 6 5 5 5 4 4 4 4 3 3 4 3 2 2 2 1 2 2 2
12 10 7 8 7 10 11 9 11 13 12 9 11 11 10 10 7 11 8 9 9 9 9 3 5 2 7 4 7 4 8 10 9 7 1 4 6 6 5 7 7 8 12 12 9 7 13 15 15 13 10 11 11 12 11 12 11 10 10 10 11 10 11 10 9 8 7 6 5 5 5 5 4 4 4 4 2 3 3 2 2 2 2 2 1 1
6 9 5 9 8 8 7 9 13 11 9 3 6 8 10 9 12 7 5 10 9 7 11 5 7 8 7 11 11 12 13 9 7 10 8 8 9 7 5 5 6 7 9 5 9 8 7 14 14 14 13 11 13 12 13 13 12 12 11 10 11 10 9 10 10 8 7 6 6 6 5 5 4 4 4 4 3 3 3 2 2 2 2 2 2 1
9 9 10 12 10 9 9 11 14 13 10 9 10 10 11 8 8 6 8 5 8 11 8 7 7 9 10 8 7 13 13 13 15 11 10 3 4 7 6 4 6 8 9 7 5 6 6 14 15 15 13 14 14 14 14 14 12 11 9 10 10 10 11 11 11 9 8 8 7 6 6 5 4 4 3 3 3 3 2 2 2 2 2 2 2 2
4 10 10 12 14 12 10 12 14 17 14 15 14 7 8 5 9 9 5 8 8 8 7 7 13 11 11 11 9 11 7 6 10 3 6 11 5 6 6 7 7 8 7 5 5 6 8 7 14 14 15 15 14 12 13 14 13 12 10 10 11 12 11 12 10 9 8 7 6 6 7 6 5 4 4 3 3 3 3 3 3 3 2 1 0 1
7 9 9 8 12 9 10 9 12 8 9 15 13 14 12 12 11 11 7 7 7 9 8 8 12 9 10 9 9 12 10 7 7 5 7 7 10 4 3 4 6 7 5 6 7 7 7 8 11 16 15 15 14 13 12 12 12 14 12 11 10 10 9 10 11 10 9 8 7 7 7 6 7 6 6 5 4 4 4 3 3 2 2 2 2 2
7 5 11 8 11 9 10 6 10 9 10 9 9 11 10 8 7 11 9 10 9 8 9 9 10 9 9 7 8 7 6 4 4 4 6 6 3 5 9 7 6 7 4 4 4 5 7 7 8 12 14 13 12 13 12 12 14 13 12 12 12 12 11 12 12 11 9 8 8 8 8 8 7 7 6 5 5 4 4 3 3 3 2 2 3 2
5 5 10 10 9 10 11 11 14 14 13 11 10 8 6 8 7 7 11 10 10 8 6 8 10 8 8 5 9 7 4 8 12 11 9 8 7 5 7 8 5 6 5 7 4 5 6 5 6 8 12 11 9 9 13 13 13 13 12 12 11 11 11 12 12 11 10 9 8 9 8 8 7 7 5 6 5 5 4 3 3 3 2 3 3 3
2 3 8 10 9 11 13 15 15 15 16 14 11 11 11 9 9 7 9 9 10 10 10 10 9 10 8 9 11 10 9 8 10 11 13 12 9 7 8 9 7 4 5 8 8 7 8 5 5 8 10 11 11 11 13 11 12 12 12 12 11 12 11 12 12 11 10 9 9 9 8 8 7 6 6 6 5 5 5 4 4 3 3 3 3 3
5 1 8 12 13 16 18 18 18 18 18 17 15 14 13 13 13 12 12 8 7 9 10 9 8 7 6 3 7 8 8 7 4 8 10 8 8 10 8 7 12 13 6 7 8 7 6 6 4 7 9 11 9 14 15 13 12 12 12 12 12 12 13 12 11 11 10 10 9 9 9 8 7 7 7 6 5 5 4 4 3 3 4 4 3 4
3 2 6 9 9 8 10 11 11 11 11 8 9 9 12 12 12 11 8 6 8 9 13 10 12 8 8 7 11 13 13 15 14 11 8 10 6 7 5 6 9 9 9 11 11 10 7 7 8 9 10 12 10 13 12 12 12 12 12 11 11 11 11 11 11 11 12 11 10 10 9 8 7 7 7 6 5 5 5 4 4 3 4 3 3 4
5 6 6 8 9 9 8 6 4 4 7 7 8 11 10 11 10 8 9 8 11 11 14 10 11 10 10 12 15 15 15 15 15 14 13 13 12 11 9 7 0 5 10 10 12 12 11 10 11 10 8 11 11 15 15 13 11 11 10 10 9 11 9 10 10 10 10 10 10 10 9 8 7 7 7 6 5 5 4 4 3 3 3 3 4 4
4 7 8 9 10 12 12 12 12 14 10 10 13 13 13 13 14 13 11 10 12 9 11 11 13 12 15 14 16 16 13 14 14 14 15 16 14 13 10 11 4 2 3 10 10 7 10 10 10 11 9 8 8 10 12 13 13 12 11 10 8 10 10 10 10 10 9 10 10 9 9 8 8 6 6 6 5 5 4 4 4 4 4 3 3 3
6 8 11 13 17 18 19 20 18 16 17 17 16 16 17 18 17 16 12 14 12 11 14 9 11 11 12 15 17 19 18 16 13 13 14 13 13 14 12 12 13 11 9 6 4 3 2 8 13 11 14 11 10 10 11 11 13 11 11 11 9 10 9 9 10 10 9 9 9 9 9 7 7 6 6 5 4 4 3 3 3 3 2 2 2 3
8 9 12 14 19 19 19 19 18 17 16 16 18 18 19 18 17 15 10 15 14 11 15 11 11 10 12 17 21 21 19 16 17 17 15 15 16 16 15 15 17 17 14 15 14 13 6 6 5 9 14 16 7 8 6 9 11 9 8 10 9 9 9 10 10 10 9 9 9 8 7 7 6 5 4 4 3 3 3 3 3 2 2 2 3 4
7 10 13 14 18 19 19 18 15 18 17 18 19 20 21 19 17 16 17 17 18 17 15 14 14 15 12 18 21 20 16 16 16 15 14 16 17 16 17 15 16 16 16 16 16 7 6 5 3 2 10 17 14 10 10 6 9 8 10 10 9 9 9 9 9 9 9 9 8 7 6 6 4 4 4 3 3 3 3 3 3 2 2 3 4 3
8 10 10 12 14 17 17 16 17 16 17 18 21 23 22 19 18 18 16 15 17 16 14 12 10 13 13 14 17 18 16 16 16 18 18 16 16 15 16 16 14 15 18 18 16 15 11 7 6 3 0 11 18 14 7 5 5 9 10 9 9 11 10 10 9 9 9 9 8 7 6 6 5 5 5 4 4 3 3 3 3 2 2 3 3 4
9 9 11 11 12 14 14 15 15 17 18 20 21 20 16 14 13 12 11 6 8 10 11 9 10 11 10 14 15 16 17 19 19 17 15 14 17 16 16 16 15 12 13 15 18 12 11 9 5 5 3 3 13 16 3 4 9 9 10 9 11 11 11 9 9 9 9 8 8 8 7 6 5 5 4 4 3 3 3 3 3 2 3 4 5 4
8 8 9 10 13 15 15 13 16 15 14 16 16 10 10 14 17 17 18 19 15 12 11 13 12 11 13 13 15 16 17 18 19 17 14 14 15 16 16 17 18 17 15 15 14 17 12 11 10 8 4 2 11 15 13 8 5 9 9 9 9 9 9 9 8 9 8 8 8 8 7 6 6 5 4 3 3 2 2 3 3 3 4 4 3 3
12 12 12 10 12 14 15 14 12 11 14 16 3 5 9 10 11 13 10 10 13 12 11 13 13 14 16 16 17 17 18 18 14 13 13 13 14 14 17 17 17 17 17 15 15 15 14 10 8 7 13 12 14 5 4 10 6 7 7 9 8 9 10 11 9 8 8 8 8 7 6 6 4 3 3 2 2 2 3 3 3 3 3 4 3 2
10 10 10 10 11 13 12 10 11 14 18 8 10 12 14 15 16 18 19 18 18 18 17 17 16 16 16 14 15 14 11 12 13 14 15 16 14 14 15 17 17 17 17 16 14 13 14 1 6 13 10 13 11 6 3 10 6 7 9 10 8 9 9 10 10 8 7 6 6 6 5 5 4 3 2 2 3 3 3 3 3 4 4 2 1 1
10 10 10 10 11 10 12 10 11 15 11 13 14 14 14 15 13 12 12 13 14 14 14 15 15 16 15 15 11 9 10 11 11 12 13 14 13 12 13 13 14 14 16 17 17 10 9 12 5 10 14 7 9 9 10 6 5 6 9 10 8 9 9 9 9 8 8 7 5 5 4 3 2 2 2 2 3 3 4 3 4 4 2 1 1 2
17 13 12 12 10 13 11 14 15 14 18 18 11 4 4 2 5 5 6 10 12 13 12 12 11 11 11 10 11 11 11 11 11 11 10 11 10 13 14 16 17 17 16 16 17 12 8 11 9 10 9 5 2 7 5 6 5 5 9 11 9 11 9 8 9 8 8 7 6 5 3 2 2 2 2 3 3 3 3 3 3 3 2 1 1 2
16 16 10 12 10 12 14 14 12 11 13 11 9 6 10 9 7 5 3 10 10 6 8 9 9 10 11 12 11 10 10 10 10 8 7 7 11 14 16 18 17 16 16 17 17 15 11 7 10 12 8 9 5 3 4 6 7 8 9 10 9 11 10 9 9 9 10 8 5 3 3 2 2 3 3 3 3 3 2 2 2 3 3 3 4 5
16 17 11 11 12 10 13 14 13 12 11 8 9 6 9 5 6 3 3 11 3 6 8 8 9 8 6 8 13 14 11 10 11 9 8 13 15 15 17 17 18 15 15 17 17 14 9 7 7 14 10 10 9 6 8 9 9 9 7 8 9 9 9 8 8 7 7 9 7 5 5 1 1 1 1 2 2 1 2 3 2 3 3 3 3 4
12 10 11 14 14 13 14 14 14 8 9 8 5 9 4 7 4 2 8 5 8 9 6 9 11 9 7 6 8 10 9 10 11 10 12 15 15 15 15 17 17 16 15 12 10 11 9 6 6 11 6 9 11 16 13 10 8 5 5 9 7 8 7 8 7 4 9 9 8 5 1 1 1 2 2 1 1 1 2 3 3 3 3 1 4 6
9 9 11 14 14 16 13 11 11 10 8 6 6 5 6 3 2 3 11 5 8 8 8 6 8 9 8 8 11 12 8 10 14 15 17 16 17 16 14 14 14 16 15 10 11 10 11 10 1 6 12 11 12 7 4 6 6 5 3 6 6 7 7 6 7 11 8 7 6 3 2 1 1 2 2 2 2 2 2 3 3 3 2 2 4 5
10 7 9 11 13 13 12 14 12 11 1 3 0 1 3 3 6 10 6 8 11 11 8 4 7 7 4 3 3 6 11 15 16 17 18 17 17 17 16 15 16 16 14 6 6 8 9 10 7 11 4 5 3 6 4 5 2 3 4 6 6 6 4 10 10 8 7 4 4 3 2 2 1 0 1 2 2 3 3 2 3 2 4 5 6 7
9 8 10 11 7 8 9 11 11 12 2 5 0 6 3 3 6 8 9 11 10 11 9 8 8 7 2 5 8 9 11 14 16 17 17 17 17 16 16 14 15 16 13 6 6 6 7 8 12 16 5 4 5 3 4 3 5 5 4 6 6 7 11 9 7 6 4 4 4 3 2 2 3 3 3 2 3 3 2 2 1 2 2 3 4 6
7 8 8 9 7 11 10 8 6 5 4 3 2 5 3 6 9 10 9 11 9 9 9 9 8 7 7 9 11 11 12 14 15 15 16 17 16 12 11 12 14 11 10 5 4 4 3 11 15 11 3 6 3 4 4 5 5 5 5 7 6 8 11 9 5 4 5 4 3 3 2 1 0 0 1 1 1 1 2 0 2 2 2 2 3 5
5 8 5 10 5 6 8 9 10 12 13 12 11 13 14 13 10 10 11 11 10 8 9 8 12 12 12 12 13 13 13 13 14 15 15 16 15 11 8 8 12 13 12 11 8 5 8 12 17 11 4 4 5 4 4 3 5 4 7 6 7 8 9 9 4 3 4 4 4 3 2 2 1 0 1 1 2 3 2 0 1 0 1 1 2 6
12 13 10 9 9 10 12 15 14 14 14 16 13 10 13 13 12 3 2 2 1 3 3 7 10 10 13 14 13 13 13 14 15 15 15 15 14 10 5 6 9 11 12 12 13 12 11 16 18 11 5 4 5 3 2 4 5 6 8 5 7 6 12 6 4 4 4 4 3 4 1 2 1 2 2 4 2 0 0 0 0 0 1 0 2 5
13 7 6 5 8 10 10 8 11 14 14 13 14 15 13 15 8 6 6 3 5 6 6 6 4 5 9 14 13 14 15 15 15 15 15 13 12 8 5 7 10 13 15 14 17 16 14 11 11 6 4 3 3 1 2 4 5 7 4 7 10 10 7 4 4 4 1 3 3 3 1 1 2 2 5 0 2 2 0 1 1 2 1 1 2 4
7 5 7 8 10 10 12 14 16 16 15 16 13 12 12 7 4 1 0 6 9 9 5 5 5 5 9 10 12 14 16 15 15 14 13 12 12 9 6 7 10 13 15 13 13 14 12 8 5 3 3 4 4 2 3 5 6 10 9 8 8 6 8 5 5 4 4 3 2 2 1 1 7 7 3 3 2 2 2 1 2 1 1 1 0 2
13 13 11 12 12 13 16 18 17 19 19 17 15 8 4 6 7 7 7 10 14 10 6 7 6 7 7 10 11 14 15 15 13 13 12 12 11 8 5 8 12 15 15 14 12 8 7 5 4 2 2 4 3 3 4 6 4 11 8 4 8 7 5 6 3 3 4 3 3 4 1 2 3 3 3 3 3 3 2 1 0 2 3 2 1 1
11 14 13 13 13 13 11 11 8 7 10 8 12 13 12 8 5 4 7 15 13 10 8 8 7 7 9 10 11 13 13 12 11 10 11 9 8 7 8 10 12 16 15 11 7 7 3 3 1 8 6 5 7 4 5 5 8 12 10 5 6 6 8 4 3 3 4 3 4 4 2 2 2 3 4 4 5 4 4 4 6 7 2 2 7 6
12 13 11 11 10 12 13 13 10 10 13 13 13 14 12 9 6 6 8 11 9 8 8 9 9 10 10 10 11 9 8 9 11 11 10 8 7 8 10 13 15 16 11 9 9 6 6 5 2 2 3 8 5 5 4 3 10 10 7 6 8 7 5 4 4 5 6 3 4 3 1 1 3 4 3 4 4 5 4 3 4 5 10 10 5 6
Wind_Direction
172 226 215 223 230 281 247 231 261 24 353 346 321 317 315 321 248 55 124 158 163 234 226 229 237 256 265 262 258 219 171 194 220 216 225 225 197 197 206 209 218 222 209 183 174 157 166 165 155 151 151 150 148 153 154 164 160 150 153 152 169 163 172 195 207 64 49 58 118 109 92 144 100 55 48 116 77 22 77 24 20 355 3 45 22 358
228 238 248 239 213 66 18 3 28 356 357 319 322 300 299 295 299 291 81 78 78 99 261 261 274 274 274 266 260 260 188 190 200 219 216 225 224 218 213 209 206 217 219 229 173 174 166 167 158 151 150 152 153 159 160 164 165 156 160 163 156 150 197 209 73 87 78 46 29 48 50 349 81 63 43 65 71 158 127 111 118 113 332 43 25 32
217 242 242 257 67 50 77 339 358 353 336 327 294 301 284 271 280 275 157 171 144 154 254 265 276 277 271 264 254 240 258 201 185 203 224 228 229 230 223 224 229 215 213 207 197 230 180 162 153 152 151 155 159 162 163 164 165 167 164 171 141 161 157 118 114 151 108 85 31 51 80 357 88 106 73 105 143 76 52 145 144 220 84 58 4 340
240 227 221 115 127 247 253 245 347 350 316 282 282 268 261 277 284 285 152 112 21 304 311 304 284 271 266 262 260 260 231 259 175 187 200 214 241 240 231 224 222 229 232 235 210 222 181 152 151 156 156 158 159 161 162 167 169 168 169 175 147 161 151 140 185 102 111 109 113 90 97 62 1 144 176 166 157 129 115 31 60 79 60 49 352 308
267 34 95 140 120 244 268 313 287 279 268 239 248 262 261 250 240 304 76 330 10 286 265 265 267 267 261 257 252 233 235 245 251 211 193 206 220 236 255 253 230 224 213 216 204 236 155 153 159 162 160 160 162 162 165 169 170 166 176 169 158 154 151 151 134 120 119 128 135 127 183 136 229 309 92 54 78 14 43 27 108 71 57 336 337 355
260 180 149 162 192 216 240 250 222 255 256 269 239 230 256 281 296 272 272 255 238 258 219 219 258 253 246 236 239 224 207 227 235 241 234 211 207 216 226 234 239 233 230 242 183 222 154 159 164 157 161 164 164 165 168 165 170 168 171 170 158 149 153 144 147 149 151 164 173 182 178 192 198 147 93 74 42 44 60 21 33 259 128 79 353 270
196 113 184 258 167 242 231 242 239 203 232 260 253 233 226 221 225 303 291 275 267 274 263 165 247 291 306 296 203 204 227 216 212 224 232 237 231 222 220 219 218 222 219 223 224 252 159 165 173 160 166 167 166 168 163 164 169 173 166 173 156 151 155 143 160 162 180 178 192 195 187 105 51 106 89 112 105 41 103 126 65 354 6 203 171 235
147 170 161 233 218 237 247 241 220 256 267 235 355 320 307 234 257 264 270 269 275 277 158 185 218 256 281 273 294 239 195 221 206 207 220 231 236 244 234 214 208 210 209 208 193 220 191 176 177 167 168 168 168 167 162 164 168 174 167 166 156 154 155 148 161 173 189 171 161 169 159 101 141 92 126 149 115 110 100 78 28 165 205 358 340 112
326 247 184 217 224 246 247 232 242 212 238 255 158 276 264 269 261 254 255 257 253 250 260 227 241 256 234 263 263 273 255 187 189 217 216 222 235 243 242 235 222 212 197 191 173 201 201 174 166 168 169 166 166 164 165 162 164 168 167 160 157 160 153 153 159 175 189 184 152 159 171 203 114 118 147 165 157 158 95 149 102 7 356 149 231 344
243 239 197 250 246 237 238 248 238 214 222 259 275 136 269 277 278 245 249 248 245 242 244 255 241 256 268 254 253 216 231 188 206 213 218 199 215 234 226 221 227 213 182 187 176 184 204 169 162 167 163 166 165 162 159 156 159 166 166 160 161 164 154 153 161 178 183 191 148 169 184 183 142 179 165 162 123 125 163 152 131 150 206 248 140 171
268 159 265 216 223 243 237 241 290 209 218 74 313 285 239 234 235 238 246 265 275 259 251 247 256 250 263 256 271 265 186 202 219 248 215 217 202 213 220 205 204 215 186 185 173 177 200 168 163 161 162 165 159 156 157 155 159 164 168 165 163 171 156 156 166 173 179 180 152 184 177 171 162 174 148 170 135 176 160 175 159 180 148 117 40 56
247 224 202 229 256 257 251 268 240 211 196 225 221 225 252 240 224 231 229 222 246 255 253 251 239 231 251 233 249 270 24 146 253 336 309 204 199 201 197 204 201 202 204 183 175 179 188 169 160 157 161 164 156 154 156 156 158 164 168 164 166 174 163 158 168 173 170 169 178 182 160 177 170 152 167 196 166 158 164 141 164 173 146 192 149 160
239 241 209 221 203 240 244 250 249 229 221 232 232 247 251 253 220 224 217 235 231 244 250 250 249 257 239 244 273 300 311 216 169 223 260 279 227 184 195 195 198 190 209 192 178 190 177 167 160 162 166 164 157 160 161 159 162 165 169 169 171 179 171 156 167 178 167 174 182 175 161 177 170 165 187 191 154 150 170 170 193 170 192 120 199 170
225 227 234 212 205 189 240 228 226 220 195 216 232 232 238 250 251 244 233 225 236 237 234 249 274 273 318 269 232 253 278 252 241 201 235 284 270 185 193 195 185 196 206 207 188 205 162 162 161 164 168 165 157 158 162 162 160 168 174 173 178 180 174 156 165 175 171 178 179 167 166 172 161 178 188 172 174 153 195 168 165 166 204 195 150 212
252 231 226 236 232 180 208 234 256 276 198 209 227 237 241 253 258 268 264 265 269 309 143 236 237 209 246 239 255 275 251 271 237 209 194 236 273 216 216 215 202 198 206 223 208 213 159 159 160 163 164 161 160 162 171 164 169 172 176 178 181 179 173 162 165 169 176 178 174 173 170 174 164 172 176 194 188 159 178 170 170 170 172 194 218 203
276 274 276 211 257 176 206 216 254 266 282 265 227 223 252 265 270 262 282 288 305 313 306 257 211 228 239 267 275 243 288 285 300 286 216 213 237 264 215 224 243 214 200 194 223 225 162 162 160 160 167 165 164 172 172 172 170 174 179 178 180 183 171 166 161 172 176 177 175 174 176 176 172 177 175 185 186 149 167 168 186 180 190 223 248 268
269 269 247 286 231 245 220 237 235 231 253 226 309 270 240 236 259 292 297 282 284 280 270 288 282 239 231 232 233 272 276 259 249 275 248 217 218 211 238 231 229 257 263 219 193 222 153 166 160 166 171 168 172 175 179 177 172 176 175 175 178 183 167 164 167 170 174 175 175 173 180 175 181 181 181 183 168 156 156 175 177 210 210 215 211 273
287 278 292 287 255 177 245 250 264 267 241 259 247 244 271 255 285 269 260 249 248 257 252 247 243 254 263 274 235 229 237 257 264 236 252 253 214 231 223 192 223 229 234 245 226 207 195 171 169 172 177 174 174 178 177 174 171 169 170 174 176 180 174 168 167 169 173 175 174 170 180 179 180 178 180 192 160 155 154 177 199 204 226 214 212 214
293 277 265 258 280 285 231 235 247 248 262 274 281 322 278 255 237 220 240 249 261 246 268 237 240 251 254 257 269 267 260 292 314 270 256 292 259 234 248 234 227 231 231 223 232 214 209 189 176 173 175 176 173 171 169 173 166 163 166 175 179 180 179 169 165 168 169 173 171 173 176 176 174 178 182 178 165 160 188 196 200 207 213 232 13 318
270 277 272 266 273 283 291 281 267 261 249 254 258 258 264 271 262 268 245 274 240 250 253 252 261 263 254 260 252 254 252 229 244 313 315 264 272 290 258 245 231 235 234 219 223 229 219 210 182 174 172 175 169 174 175 170 158 161 165 172 181 177 175 163 160 165 170 173 168 169 173 178 178 182 179 178 177 179 192 200 204 214 219 220 251 248
275 265 273 283 286 288 256 235 252 247 256 250 250 260 252 244 281 284 275 266 267 273 264 278 271 261 262 271 269 290 315 297 276 238 230 257 247 279 286 272 277 279 287 270 265 258 239 205 200 169 165 177 176 180 175 157 159 167 170 174 178 173 174 163 162 166 170 168 171 171 177 176 177 183 178 177 179 185 196 198 203 208 204 225 223 239
292 274 273 278 258 252 261 258 262 256 250 258 273 273 268 272 272 260 263 243 263 271 277 279 264 258 272 318 305 311 1 348 338 327 324 288 258 234 241 270 253 229 277 297 280 273 266 218 191 161 165 178 191 173 170 154 160 163 169 175 176 171 175 164 164 169 167 169 172 174 176 175 179 180 180 178 175 191 191 201 204 200 222 223 246 245
339 328 289 280 271 272 277 280 285 287 284 280 269 270 269 262 265 250 255 261 258 255 280 279 282 266 280 307 316 314 318 327 3 357 336 332 351 0 348 336 300 233 212 251 253 246 256 248 203 175 176 178 194 162 150 154 160 164 169 175 174 174 177 169 168 168 168 167 173 173 174 173 177 176 180 176 183 189 201 200 201 206 212 224 230 233
347 277 268 268 273 270 268 265 261 260 265 268 259 257 260 258 258 267 277 299 290 281 267 265 260 271 242 252 287 321 326 327 335 326 323 330 344 341 4 18 343 326 274 249 268 256 249 249 217 199 195 187 185 151 155 163 165 166 173 176 176 178 174 167 166 168 168 168 171 168 174 177 175 178 180 186 184 193 197 201 206 206 220 231 239 248
292 243 255 282 285 282 274 263 257 247 249 270 286 285 274 277 281 284 294 314 281 260 263 260 262 266 275 330 318 316 320 308 302 300 309 303 321 325 331 357 330 326 339 320 281 269 259 253 245 224 211 199 178 154 162 169 171 168 174 178 174 176 174 167 165 168 173 172 170 170 175 177 180 179 180 183 187 196 197 206 207 210 231 238 243 247
286 275 272 264 265 272 268 262 263 345 357 336 313 306 307 297 288 293 276 268 264 264 264 265 269 268 296 315 302 301 304 303 304 306 303 301 305 307 309 309 53 321 315 318 319 311 297 273 258 244 229 217 204 165 168 172 174 164 174 179 173 168 169 161 159 167 171 169 170 169 175 177 180 183 181 185 192 197 198 203 213 221 224 238 246 252
307 298 274 270 268 267 272 287 309 325 306 300 296 290 284 279 274 268 271 266 261 273 271 263 264 276 282 290 289 285 288 290 293 297 302 306 307 307 307 295 266 234 260 287 289 304 305 290 283 276 259 237 222 189 177 176 182 179 167 180 176 161 164 158 159 167 170 163 165 169 177 177 182 178 183 185 187 188 196 205 209 219 228 231 249 269
269 271 265 269 265 265 275 279 287 294 287 281 275 270 273 275 277 276 266 269 282 280 263 267 275 282 283 286 284 285 287 291 295 298 301 302 303 302 298 297 287 275 265 223 213 184 231 307 310 311 295 266 239 193 196 190 190 189 167 171 171 163 161 159 160 165 167 159 162 169 172 181 175 178 186 175 180 190 198 210 216 226 240 243 272 277
238 255 253 252 256 260 264 273 276 276 276 282 283 280 274 272 273 275 282 281 277 262 273 283 287 278 277 275 276 276 284 292 296 299 299 298 294 287 282 281 284 275 267 268 260 253 230 223 286 307 292 286 247 219 220 193 175 191 166 156 166 158 159 153 159 163 164 161 163 165 168 169 173 174 171 172 184 189 200 208 221 226 233 260 269 257
268 248 259 261 269 267 264 265 274 277 275 267 262 262 259 261 267 273 277 277 277 279 277 271 270 271 269 267 272 281 288 291 294 295 289 281 281 282 283 281 275 280 274 259 254 217 167 181 116 73 327 296 283 252 219 180 173 167 140 153 160 154 154 154 160 164 166 164 158 155 164 161 157 163 166 171 188 201 207 211 211 207 241 256 259 275
196 244 248 267 273 273 275 274 270 278 284 281 275 271 274 278 277 271 267 263 266 265 270 277 276 271 261 270 280 285 289 291 290 285 284 283 282 282 283 281 279 277 280 281 268 250 232 167 182 132 67 301 285 264 222 154 166 141 150 162 159 159 161 162 162 167 162 162 157 156 166 165 163 167 177 189 194 201 209 221 210 222 249 261 269 274
231 268 268 263 269 270 272 279 281 272 270 269 266 264 269 272 268 267 272 280 281 281 284 289 276 267 288 291 289 286 288 288 289 294 296 294 292 293 291 288 290 306 314 317 305 280 251 231 184 143 138 252 295 274 213 211 185 147 164 170 166 166 164 161 165 165 160 159 156 160 170 166 168 171 186 188 201 204 211 207 222 237 250 250 255 259
269 254 249 257 266 267 270 272 277 289 290 277 263 276 275 267 270 273 269 267 260 264 265 264 266 284 288 292 290 288 289 292 290 294 311 331 333 330 325 321 314 307 312 313 315 314 300 252 193 160 174 213 277 266 234 192 176 154 175 159 162 164 165 157 166 163 159 161 160 162 163 165 172 178 179 185 200 208 209 228 240 248 249 274 300 296
259 257 259 260 262 272 280 284 285 278 263 252 333 295 271 286 293 286 282 278 275 264 262 271 284 286 287 286 285 284 282 285 299 325 316 309 309 310 311 310 312 313 309 305 308 309 309 351 309 211 178 191 235 243 24 285 169 154 159 149 166 165 163 162 166 165 156 159 156 158 160 160 164 172 178 181 197 211 233 239 250 256 266 272 274 317
259 267 266 262 263 270 281 273 265 253 251 289 294 285 283 279 282 285 288 288 289 291 300 298 295 297 293 289 288 304 327 345 340 329 321 314 313 312 308 308 314 318 309 303 305 310 312 49 193 264 235 207 169 145 197 226 172 157 154 151 173 157 163 160 169 161 150 154 154 147 146 157 166 173 183 195 205 219 232 247 251 255 260 267 51 21
241 241 253 254 262 273 270 263 257 248 276 283 282 285 282 284 304 335 310 297 299 300 303 292 285 288 300 309 313 340 332 331 312 300 301 303 306 312 338 340 340 333 328 318 301 303 311 307 237 223 261 210 167 171 180 197 182 163 156 159 174 157 163 158 161 159 144 143 134 133 140 161 155 164 194 213 227 231 238 232 243 266 276 335 4 304
248 249 240 248 237 251 251 259 261 285 284 275 280 316 21 354 22 8 314 302 309 308 328 338 345 360 348 342 348 336 336 327 311 299 301 310 340 355 340 331 330 322 317 309 305 306 300 297 276 215 216 278 189 159 162 183 182 166 164 165 178 158 162 163 163 156 137 143 140 145 150 147 169 199 224 236 242 250 250 250 274 303 313 301 301 306
226 235 230 244 246 244 259 265 267 264 260 266 268 34 37 44 40 56 284 285 288 320 32 346 1 6 352 335 323 317 316 309 295 294 304 334 349 341 331 322 316 312 310 304 292 290 302 304 305 275 202 162 159 183 198 196 182 171 181 168 167 156 168 173 160 147 161 157 142 136 116 146 215 225 223 216 243 264 274 309 328 322 348 19 359 330
225 229 229 230 249 252 255 260 260 264 266 287 298 87 90 74 69 6 302 282 16 28 14 359 345 348 351 337 320 317 308 293 288 300 333 346 336 328 321 315 309 308 307 306 302 288 284 291 291 281 196 156 128 179 217 201 180 185 176 159 158 164 168 169 147 171 165 141 161 147 116 174 218 283 316 317 312 332 317 312 327 321 345 14 343 312
248 241 241 240 242 244 250 253 255 253 275 275 327 93 117 113 117 13 291 275 54 354 5 350 338 322 331 300 277 273 280 281 287 306 333 320 316 316 313 315 315 309 304 313 327 330 316 328 262 255 242 126 166 205 192 167 175 184 177 153 161 161 164 143 178 158 89 85 82 90 122 165 197 211 226 285 317 338 341 340 318 299 76 21 324 323
260 261 254 258 258 257 255 259 266 266 272 330 39 35 83 163 328 263 256 328 356 338 341 340 321 324 340 339 322 308 300 299 304 308 309 311 312 316 316 316 309 307 297 315 327 333 323 341 359 224 233 187 186 169 152 150 149 161 207 150 163 157 153 154 104 92 103 107 112 118 175 134 62 44 12 352 346 335 311 296 299 314 33 0 329 317
269 281 266 269 265 266 264 265 263 269 354 96 110 257 162 280 239 263 321 333 307 307 317 316 291 296 312 303 290 277 289 295 301 303 307 312 312 310 313 313 311 304 289 271 314 332 339 326 298 260 221 241 141 111 84 79 100 173 192 160 155 138 119 89 100 105 106 120 116 112 82 75 75 72 247 244 239 250 250 242 266 18 14 350 334 320
268 265 268 264 266 272 270 264 267 269 78 315 258 272 113 267 289 314 310 291 293 297 309 305 299 295 272 267 270 279 290 302 305 304 305 309 309 312 313 314 310 306 291 282 294 322 330 302 288 268 250 76 87 108 118 165 186 198 159 148 141 117 101 108 106 113 116 107 106 103 136 161 194 209 198 211 229 241 252 262 28 71 35 345 330 327
300 285 270 262 265 274 270 266 268 307 3 176 256 290 239 225 279 288 291 293 299 305 313 317 312 309 302 299 300 303 306 307 306 309 313 309 312 314 309 318 315 310 319 298 276 278 286 276 276 266 231 139 146 159 176 191 166 170 153 142 146 120 121 111 105 124 120 112 135 163 169 166 255 77 252 263 272 285 270 251 71 25 5 356 340 327
253 264 281 286 317 288 285 288 299 310 310 308 299 287 288 297 316 334 330 323 328 348 352 324 310 315 310 302 305 306 306 307 311 316 309 307 306 308 313 319 311 317 314 311 295 282 258 259 275 265 210 156 153 174 178 170 160 161 137 131 126 141 106 101 127 121 125 166 172 133 166 112 59 126 15 4 275 252 228 177 110 280 44 30 326 308
291 292 320 304 279 290 285 278 289 288 286 290 299 316 314 310 305 322 301 320 22 312 318 291 295 313 311 307 307 307 305 311 312 307 304 300 301 301 293 296 296 296 293 292 292 267 249 251 250 250 206 159 148 154 169 158 152 142 133 151 95 77 91 127 153 148 191 156 112 118 36 70 92 31 290 237 214 122 5 167 140 79 95 101 291 300
291 2 19 296 299 301 277 280 278 286 290 290 288 286 287 286 333 29 355 340 301 275 254 264 293 314 302 295 308 310 309 310 304 302 302 299 297 291 276 286 285 283 282 276 263 257 251 237 244 226 170 134 127 183 172 147 148 133 126 100 116 117 127 164 163 144 162 116 141 125 147 156 101 252 232 342 22 360 271 112 94 76 64 58 314 312
294 88 284 275 277 265 276 283 284 283 282 280 279 276 280 324 11 311 271 301 289 277 254 270 283 285 274 295 314 313 307 303 301 303 300 292 292 297 287 280 282 285 280 273 263 243 238 240 218 205 187 148 127 214 170 172 165 144 112 117 112 128 150 159 139 170 153 124 130 111 67 24 186 211 16 16 334 9 341 99 125 158 144 126 216 289
296 307 282 291 284 280 278 276 281 288 283 279 271 280 335 299 310 330 331 313 285 265 257 269 246 267 302 312 321 316 307 305 307 304 297 288 287 289 290 290 284 281 276 268 250 233 229 217 210 142 169 131 136 249 154 203 146 120 110 133 132 154 136 118 152 119 117 175 139 93 21 16 335 12 23 346 357 24 10 87 118 97 105 121 133 205
285 272 282 282 278 277 278 285 300 304 301 302 292 300 297 314 345 332 294 263 278 309 306 298 311 318 312 322 324 316 310 310 309 304 300 296 292 302 297 288 284 281 269 253 230 213 172 284 252 175 176 161 139 217 162 194 117 119 131 169 127 115 101 124 137 155 167 188 147 93 39 346 318 14 6 5 4 8 357 122 69 118 85 136 193 210
266 277 285 280 282 284 289 295 300 294 281 279 294 294 287 286 287 289 282 288 307 303 305 307 315 319 321 323 322 324 323 315 313 312 309 317 323 318 307 291 283 279 268 227 223 180 171 178 228 250 150 134 141 168 171 168 119 123 139 131 118 120 132 161 170 192 192 161 96 100 136 256 346 32 9 354 15 5 0 38 90 108 160 183 170 181